[[{"header":{"parameterUnit":"m.s-1","parameterCategory":2,"la1":30.2991,"la2":30.254,"lo1":-89.0895,"lo2":-89.0444,"dy":0.0017,"dx":0.0017,"nx":28,"ny":28,"refTime":"2024-07-22T03:00:00:Z","depth":"0","parameterNumber":2,"parameterNumberName":"U-component_of_CURRENTS"},"data":[0,0,0,0,0,0,0,0,0,0,0,0,0,0,0,0,0,0,0,0,0,0,0,0,0,0,0,0,0,0,0,0,0,0,0,0,0,0,0,0,0,0,0,0,0,0,0,0,0,0,0,0,0,0,0,0,0,0,0.3393,0.3395,0,0.3491,0.3492,0.3492,0.3525,0.3525,0.3525,0.3525,0.3594,0.3596,0.3598,0,0,0,0,0,0,0,0,0,0,0,0,0,0.3245,0.3247,0.3393,0.3395,0.3396,0.349,0.3492,0.3493,0.3525,0.3525,0.3525,0.3525,0.3593,0.3596,0.3598,0,0,0,0,0,0,0,0,0,0,0,0,0,0.3319,0.3248,0.3393,0.3426,0.343,0.349,0.3492,0.3493,0.3525,0.3525,0.3525,0.3525,0.3593,0.3595,0.3598,0.362,0,0,0.3607,0.3609,0,0,0,0,0,0,0,0,0.3315,0.3324,0.342,0.3424,0.3429,0.3498,0.3465,0.3535,0.3525,0.3486,0.3525,0.3525,0.3562,0.3567,0.3582,0.3623,0.3626,0.3608,0.3609,0.3611,0.3611,0,0,0,0,0,0,0,0.331,0.3321,0.3429,0.3421,0.3427,0.3439,0.3449,0.3478,0.3521,0.3489,0.3493,0.3508,0.3563,0.3579,0.3584,0.3627,0.3608,0.361,0.3612,0.3613,0.3742,0.3744,0,0,0,0,0,0,0.3304,0.3316,0.3426,0.3432,0.3374,0.3442,0.3453,0.3474,0.3521,0.3529,0.3509,0.351,0.3574,0.358,0.3586,0.3672,0.3611,0.3613,0.3615,0.374,0.3742,0.3744,0,0,0,0,0,0,0.3301,0.3313,0.3422,0.3378,0.3393,0.3445,0.3468,0.3476,0.3495,0.3537,0.3543,0.352,0.3574,0.3582,0.3629,0.3673,0.3615,0.3617,0.3738,0.3741,0.3743,0.3807,0,0,0,0,0,0,0.3296,0.3311,0.3325,0.3378,0.3396,0.3483,0.3469,0.3478,0.3506,0.3509,0.3549,0.3555,0.3575,0.3624,0.3632,0.3676,0.362,0.3736,0.3739,0.3742,0.3803,0.3812,0.3819,0,0,0,0,0,0.329,0.3331,0.3325,0.3339,0.3413,0.3485,0.3496,0.3529,0.3507,0.3539,0.3555,0.3554,0.3649,0.3628,0.3636,0.3682,0.3735,0.3739,0.3742,0.3799,0.381,0.3819,0,0,0,0,0,0,0.3286,0.3339,0.3335,0.339,0.3437,0.3492,0.3535,0.3528,0.3564,0.3561,0.3574,0.3584,0.3647,0.3649,0.3625,0.3728,0.3692,0.3698,0.3733,0.3743,0.3751,0.3835,0.3622,0,0,0,0,0,0.3285,0.3323,0.3372,0.3417,0.3448,0.348,0.3509,0.3523,0.3561,0.3575,0.3589,0.3616,0.3669,0.3691,0.3731,0.3779,0.3848,0.3814,0.3822,0.3828,0.3903,0.405,0.408,0.3756,0.3756,0.3756,0,0,0.3291,0.333,0.3348,0.3417,0.346,0.3523,0.3499,0.3556,0.3602,0.3577,0.3635,0.3646,0.3689,0.3758,0.3784,0.3763,0.3943,0.3833,0.3839,0.3911,0.4058,0.409,0.4118,0.3759,0.3758,0.3758,0,0,0.3351,0.3366,0.3427,0.3476,0.3542,0.3558,0.3571,0.3614,0.3637,0.3682,0.3687,0.3742,0.3773,0.3844,0.3878,0.3956,0.3984,0.393,0.404,0.418,0.421,0.4237,0.4312,0.4345,0.3929,0.393,0.393,0,0.3355,0.3435,0.3456,0.3542,0.3588,0.3575,0.365,0.3681,0.372,0.3764,0.3713,0.3829,0.3844,0.3987,0.4012,0.3985,0.4039,0.3995,0.4196,0.4225,0.4252,0.4323,0.4359,0.3933,0.3933,0.3932,0.3932,0,0.3473,0.3532,0.3585,0.367,0.372,0.3783,0.3824,0.3856,0.3842,0.3873,0.3979,0.4001,0.4084,0.4076,0.4073,0.4258,0.4223,0.4192,0.4179,0.4289,0.4354,0.4391,0.3938,0.3937,0.3936,0.3935,0,0,0.3494,0.3631,0.3651,0.3704,0.3787,0.3837,0.3925,0.4014,0.4071,0.4103,0.4201,0.4298,0.4296,0.434,0.4327,0.4441,0.4636,0.4398,0.4404,0.4487,0.4913,0.4781,0.4807,0.4633,0.4641,0.4648,0.4863,0,0.3576,0.3728,0.3779,0.39,0.3974,0.4007,0.4085,0.416,0.4191,0.4268,0.4342,0.4415,0.4398,0.4411,0.4545,0.4601,0.4746,0.458,0.4786,0.4793,0.4676,0.4852,0.4642,0.481,0.4899,0.4905,0.491,0,0.3678,0.3762,0.3897,0.4008,0.4046,0.4101,0.4211,0.428,0.4403,0.4433,0.4548,0.4572,0.4746,0.4681,0.4957,0.4842,0.4931,0.4976,0.4984,0.489,0.4734,0.4726,0.4873,0.4711,0.4967,0.4962,0.4958,0,0.368,0.3839,0.3932,0.3981,0.4108,0.4167,0.4214,0.4331,0.4383,0.4529,0.4559,0.4771,0.4815,0.502,0.5104,0.5056,0.5368,0.5302,0.5292,0.5278,0.5165,0.5129,0.5208,0.5582,0.5582,0.5581,0.5581,0,0.3745,0.3822,0.3933,0.3991,0.4074,0.4171,0.4254,0.4332,0.4437,0.4497,0.4629,0.4695,0.4906,0.5062,0.519,0.5344,0.5459,0.5394,0.5372,0.5167,0.5131,0.5031,0.4916,0.5589,0.5588,0.5586,0.5585,0,0.3744,0.3825,0.3922,0.405,0.4075,0.4129,0.4211,0.4267,0.4377,0.4451,0.4494,0.4672,0.4874,0.5066,0.5345,0.5397,0.5424,0.5612,0.5317,0.5258,0.5062,0.4956,0.4946,0.4818,0.567,0.5668,0.5667,0,0.3766,0.382,0.3921,0.3943,0.399,0.4062,0.4094,0.4208,0.4249,0.4416,0.4439,0.4649,0.4763,0.5102,0.5278,0.5521,0.5371,0.5428,0.5335,0.5097,0.4966,0.4786,0.4666,0.519,0.5185,0.5181,0.5177,0,0.3787,0.3806,0.3865,0.389,0.3917,0.3951,0.4001,0.4017,0.4145,0.4212,0.4312,0.4425,0.4728,0.4864,0.5145,0.5267,0.5121,0.5349,0.5224,0.4733,0.4433,0.4276,0.4948,0.5142,0.5145,0.5148,0.515,0.5151,0.3759,0.3769,0.3805,0.3817,0.3828,0.3806,0.378,0.3843,0.3874,0.393,0.4124,0.4243,0.4478,0.4844,0.4919,0.4881,0.4906,0.4795,0.4729,0.4606,0.4357,0.4918,0.4993,0.4995,0.4998,0.5,0.5001,0,0.3691,0.37,0.3726,0.3694,0.3639,0.3692,0.3685,0.3635,0.3605,0.3743,0.3824,0.4034,0.4153,0.4336,0.4418,0.43,0.417,0.4181,0.3906,0.3856,0.4486,0.4336,0.4122,0.4122,0.4123,0.4123,0.4123,0.4123,0.3645,0.3625,0.363,0.3508,0.3476,0.3347,0.3312,0.3274,0.333,0.3346,0.3444,0.3608,0.3842,0.3935,0.3839,0.3762,0.3495,0.3347,0.3366,0.3798,0.385,0.3899,0.3736,0.34,0.3399,0.2625,0.2618,0.2613]},{"header":{"parameterUnit":"m.s-1","parameterCategory":2,"la1":30.2991,"la2":30.254,"lo1":-89.0895,"lo2":-89.0444,"dy":0.0017,"dx":0.0017,"nx":28,"ny":28,"refTime":"2024-07-22T03:00:00:Z","depth":"0","parameterNumber":3,"parameterNumberName":"V-component_of_CURRENTS"},"data":[0,0,0,0,0,0,0,0,0,0,0,0,0,0,0,0,0,0,0,0,0,0,0,0,0,0,0,0,0,0,0,0,0,0,0,0,0,0,0,0,0,0,0,0,0,0,0,0,0,0,0,0,0,0,0,0,0,0,0.0223,0.0222,0,0.0141,0.014,0.0139,0.0109,0.0109,0.0109,0.0109,0.0071,0.007,0.0069,0,0,0,0,0,0,0,0,0,0,0,0,0,0.0225,0.0226,0.0224,0.0222,0.0221,0.0141,0.014,0.0139,0.0109,0.0109,0.0109,0.0109,0.0071,0.007,0.0069,0,0,0,0,0,0,0,0,0,0,0,0,0,0.0193,0.0226,0.0224,0.0195,0.0192,0.0141,0.014,0.0139,0.0109,0.0109,0.0109,0.0109,0.0072,0.007,0.0068,0.0054,0,0,0.0063,0.0062,0,0,0,0,0,0,0,0,0.0195,0.0194,0.0201,0.0197,0.0193,0.0134,0.0126,0.0112,0.0109,0.0142,0.0109,0.0109,0.0095,0.0091,0.0077,0.0052,0.005,0.0063,0.0062,0.0061,0.0061,0,0,0,0,0,0,0,0.0198,0.0196,0.0192,0.0199,0.0195,0.0142,0.0139,0.0123,0.012,0.0139,0.0136,0.0125,0.0094,0.0079,0.0076,0.005,0.0063,0.0062,0.006,0.006,0.0069,0.007,0,0,0,0,0,0,0.0212,0.0199,0.0195,0.019,0.0193,0.0142,0.0139,0.0154,0.0119,0.0113,0.0124,0.0123,0.0081,0.0078,0.0074,0.0138,0.0061,0.006,0.0059,0.0068,0.007,0.0071,0,0,0,0,0,0,0.0213,0.0213,0.0198,0.0189,0.0184,0.0143,0.0159,0.0152,0.0132,0.0108,0.0103,0.0111,0.0081,0.0077,0.0073,0.0133,0.0059,0.0057,0.0066,0.0068,0.007,0.0212,0,0,0,0,0,0,0.0214,0.0215,0.0226,0.0192,0.0185,0.0185,0.0159,0.015,0.0124,0.0122,0.0095,0.0092,0.0081,0.0075,0.0071,0.0129,0.0056,0.0065,0.0067,0.007,0.0206,0.0218,0.0229,0,0,0,0,0,0.0214,0.0253,0.0228,0.0227,0.0205,0.0186,0.0178,0.0148,0.0124,0.0128,0.0108,0.0092,0.0088,0.0074,0.0069,0.0129,0.0064,0.0067,0.0069,0.02,0.0216,0.0229,0,0,0,0,0,0,0.0279,0.0252,0.0225,0.0257,0.0222,0.0181,0.0195,0.0145,0.0128,0.0136,0.0097,0.0093,0.0119,0.0089,0.0074,0.0135,0.0078,0.0079,0.0179,0.0193,0.0205,0.0297,0.0055,0,0,0,0,0,0.0291,0.0309,0.0262,0.0288,0.0283,0.0228,0.0212,0.0184,0.0162,0.0153,0.0124,0.0112,0.0126,0.0129,0.0125,0.0145,0.0151,0.0181,0.0193,0.0203,0.0272,0.0342,0.0369,0.008,0.008,0.008,0,0,0.0321,0.0311,0.0319,0.03,0.0285,0.0299,0.0223,0.022,0.0239,0.0154,0.0181,0.0148,0.0137,0.0178,0.0187,0.0161,0.027,0.0207,0.0217,0.0281,0.0349,0.0378,0.0403,0.0082,0.0082,0.0082,0,0,0.0409,0.039,0.0434,0.0417,0.0389,0.0354,0.035,0.03,0.0295,0.0292,0.0258,0.0271,0.0244,0.028,0.029,0.036,0.0328,0.0331,0.0476,0.0542,0.0568,0.0591,0.0566,0.0587,0.0342,0.0342,0.0342,0,0.0448,0.0494,0.0441,0.0483,0.0485,0.0387,0.043,0.0415,0.0362,0.0393,0.0328,0.0357,0.0323,0.0432,0.0454,0.04,0.0392,0.0424,0.0564,0.0587,0.0609,0.0579,0.0599,0.0349,0.0348,0.0347,0.0347,0,0.0562,0.0594,0.063,0.0647,0.0637,0.066,0.0622,0.0622,0.0579,0.0567,0.063,0.0581,0.0616,0.059,0.0546,0.0683,0.0606,0.0569,0.0541,0.0648,0.0606,0.0625,0.0359,0.0357,0.0355,0.0353,0,0,0.0681,0.0703,0.0717,0.0745,0.0724,0.0731,0.0787,0.0818,0.0886,0.0838,0.0939,0.0942,0.0906,0.0917,0.0854,0.0902,0.0995,0.0808,0.0807,0.0807,0.1082,0.0963,0.0971,0.0981,0.0987,0.0991,0.0966,0,0.079,0.0882,0.0865,0.0952,0.0995,0.0949,0.1012,0.103,0.103,0.1096,0.1091,0.1145,0.1034,0.1045,0.1088,0.1036,0.1064,0.1003,0.0961,0.0959,0.0864,0.0998,0.0904,0.0872,0.0985,0.0988,0.099,0,0.0923,0.0956,0.1053,0.1109,0.113,0.1165,0.1251,0.1293,0.1373,0.1385,0.1449,0.1415,0.1493,0.1358,0.1388,0.1348,0.1249,0.1184,0.1181,0.1061,0.0882,0.0795,0.0902,0.0635,0.1019,0.1017,0.1014,0,0.1024,0.1102,0.1175,0.1191,0.1233,0.1294,0.1321,0.1396,0.1469,0.1576,0.1639,0.17,0.1723,0.1684,0.1536,0.1477,0.1533,0.1425,0.1221,0.1205,0.1121,0.109,0.1005,0.1468,0.1468,0.1468,0.1468,0,0.1152,0.1217,0.1229,0.127,0.1371,0.1387,0.1521,0.1563,0.1678,0.1802,0.1795,0.1896,0.1813,0.1803,0.1654,0.1515,0.163,0.1306,0.1239,0.1152,0.1126,0.0883,0.0778,0.1467,0.1467,0.1467,0.1467,0,0.1252,0.1268,0.1339,0.139,0.1417,0.1484,0.1596,0.1709,0.1802,0.1965,0.2011,0.2076,0.2071,0.194,0.1854,0.1651,0.1382,0.1432,0.1287,0.1206,0.0738,0.0647,0.0587,0.0495,0.1221,0.1219,0.1217,0,0.1311,0.1358,0.1396,0.1428,0.1451,0.1551,0.164,0.1751,0.1879,0.2076,0.2178,0.2222,0.2273,0.2087,0.1773,0.1514,0.1315,0.1198,0.109,0.0761,0.061,0.0551,0.0475,0.0987,0.0984,0.0981,0.0978,0,0.1396,0.1393,0.1419,0.1479,0.1557,0.1671,0.1812,0.1928,0.2097,0.2247,0.2441,0.2505,0.2309,0.2046,0.1655,0.1428,0.101,0.1122,0.0869,0.053,0.0385,0.0244,0.0878,0.0951,0.0954,0.0956,0.0957,0.0958,0.1419,0.1432,0.1456,0.152,0.1619,0.1787,0.1902,0.2079,0.229,0.2526,0.2592,0.2707,0.227,0.1745,0.1423,0.0685,0.0792,0.0432,0.0372,0.036,0.0228,0.0764,0.0707,0.0708,0.0709,0.071,0.0711,0,0.1435,0.1452,0.1507,0.159,0.172,0.1782,0.2019,0.2159,0.2398,0.2604,0.276,0.2582,0.202,0.1448,0.0496,0.0015,-0.0115,-0.0232,-0.0335,-0.0356,0.018,0.0119,-0.0173,-0.0172,-0.0172,-0.0172,-0.0171,-0.0171,0.1434,0.147,0.15,0.1675,0.1759,0.1959,0.2099,0.2301,0.2484,0.2673,0.2725,0.2756,0.2212,0.067,-0.0438,-0.0663,-0.0904,-0.0971,-0.1039,-0.073,-0.0674,-0.062,-0.0704,-0.1163,-0.1164,-0.1576,-0.158,-0.1584]}],[{"header":{"parameterUnit":"m.s-1","parameterCategory":2,"la1":30.2991,"la2":30.254,"lo1":-89.0895,"lo2":-89.0444,"dy":0.0017,"dx":0.0017,"nx":28,"ny":28,"refTime":"2024-07-22T03:00:00:Z","depth":"2","parameterNumber":2,"parameterNumberName":"U-component_of_CURRENTS"},"data":[0,0,0,0,0,0,0,0,0,0,0,0,0,0,0,0,0,0,0,0,0,0,0,0,0,0,0,0,0,0,0,0,0,0,0,0,0,0,0,0,0,0,0,0,0,0,0,0,0,0,0,0,0,0,0,0,0,0,0.2411,0.2409,0,0.2329,0.2329,0.2329,0.2373,0.2374,0.2375,0.2376,0.2445,0.2445,0.2446,0,0,0,0,0,0,0,0,0,0,0,0,0,0.2622,0.2619,0.2411,0.2409,0.2407,0.2329,0.2329,0.233,0.2372,0.2374,0.2375,0.2376,0.2444,0.2445,0.2446,0,0,0,0,0,0,0,0,0,0,0,0,0,0.2546,0.2618,0.2412,0.2409,0.2408,0.2329,0.2329,0.233,0.2372,0.2374,0.2375,0.2377,0.2444,0.2445,0.2446,0.2424,0,0,0.2451,0.2451,0,0,0,0,0,0,0,0,0.2551,0.254,0.2412,0.2409,0.2407,0.2351,0.2428,0.2364,0.2372,0.2399,0.2376,0.2377,0.2418,0.2421,0.2419,0.2427,0.243,0.2451,0.2451,0.2452,0.2452,0,0,0,0,0,0,0,0.2556,0.2544,0.2392,0.2409,0.2406,0.2417,0.241,0.2417,0.2414,0.2397,0.2397,0.2367,0.242,0.2417,0.2421,0.2431,0.2451,0.2452,0.2453,0.2453,0.2535,0.2537,0,0,0,0,0,0,0.2537,0.2548,0.2394,0.2388,0.247,0.2411,0.2403,0.2378,0.241,0.2412,0.2365,0.2369,0.2414,0.2419,0.2424,0.2581,0.2452,0.2453,0.2454,0.2534,0.2536,0.2537,0,0,0,0,0,0,0.2542,0.2524,0.2397,0.2457,0.244,0.2405,0.2377,0.2375,0.2408,0.2382,0.239,0.2402,0.2416,0.2422,0.2469,0.2577,0.2454,0.2455,0.2532,0.2534,0.2536,0.2778,0,0,0,0,0,0,0.2548,0.2527,0.2535,0.2455,0.2435,0.241,0.2374,0.2372,0.2378,0.2384,0.2415,0.2421,0.2417,0.2467,0.247,0.2576,0.2456,0.2531,0.2533,0.2536,0.2769,0.2789,0.2806,0,0,0,0,0,0.2557,0.2524,0.2536,0.2518,0.2436,0.2411,0.2407,0.2394,0.2379,0.2425,0.2426,0.2422,0.2486,0.247,0.2473,0.2582,0.2529,0.2532,0.2536,0.276,0.2785,0.2805,0,0,0,0,0,0,0.2586,0.2521,0.2534,0.2478,0.2484,0.2415,0.2417,0.2412,0.2444,0.2456,0.2438,0.2446,0.2533,0.2494,0.2476,0.2602,0.2507,0.2511,0.2677,0.2699,0.2717,0.2716,0.2457,0,0,0,0,0,0.2602,0.2588,0.2542,0.2512,0.2509,0.248,0.2471,0.2479,0.2466,0.2483,0.2516,0.2523,0.2538,0.2569,0.2582,0.2646,0.2645,0.271,0.2729,0.2745,0.274,0.2822,0.285,0.2547,0.2547,0.2547,0,0,0.2601,0.2562,0.2555,0.2525,0.2512,0.2529,0.2484,0.2489,0.2533,0.2484,0.2584,0.2599,0.2563,0.2653,0.2688,0.2646,0.284,0.2749,0.2765,0.2749,0.2828,0.2859,0.2885,0.255,0.2549,0.2549,0,0,0.2599,0.2567,0.2583,0.2587,0.2586,0.2578,0.2592,0.2596,0.264,0.2708,0.2692,0.2775,0.279,0.2832,0.2827,0.2941,0.2931,0.2936,0.3051,0.3134,0.3161,0.3185,0.3281,0.3311,0.2954,0.2954,0.2954,0,0.2627,0.2603,0.2588,0.2605,0.2596,0.2607,0.2633,0.2673,0.2717,0.2758,0.2773,0.2872,0.288,0.2972,0.3015,0.2999,0.3021,0.2988,0.3167,0.3189,0.3209,0.3301,0.3332,0.2966,0.2965,0.2964,0.2962,0,0.2636,0.2639,0.2631,0.267,0.2687,0.2695,0.2734,0.2821,0.2868,0.2904,0.3047,0.3101,0.3159,0.3193,0.3133,0.3285,0.3252,0.3188,0.313,0.3256,0.3343,0.3371,0.2983,0.2979,0.2975,0.2972,0,0,0.2624,0.2647,0.2645,0.2665,0.2712,0.2707,0.2819,0.2893,0.2948,0.3101,0.3204,0.331,0.3373,0.3369,0.3387,0.3463,0.3663,0.3386,0.3385,0.3517,0.386,0.359,0.3594,0.363,0.3634,0.3638,0.3889,0,0.2647,0.2663,0.2687,0.2725,0.2726,0.2788,0.2865,0.2954,0.3048,0.3175,0.3308,0.339,0.3428,0.3475,0.3596,0.3599,0.3733,0.3601,0.3683,0.3687,0.346,0.3614,0.3346,0.3521,0.3915,0.3919,0.3922,0,0.2635,0.2643,0.2673,0.2715,0.2725,0.2778,0.2878,0.296,0.3135,0.3216,0.3405,0.3472,0.3663,0.3645,0.3881,0.3788,0.3858,0.3886,0.3895,0.3562,0.3463,0.344,0.3554,0.3967,0.3963,0.396,0.3957,0,0.2558,0.2614,0.2626,0.2635,0.2712,0.277,0.2835,0.2977,0.3058,0.3249,0.3338,0.3571,0.3693,0.3841,0.3886,0.3914,0.4062,0.4119,0.3986,0.397,0.3709,0.3657,0.4311,0.4311,0.4311,0.431,0.4309,0,0.2505,0.2516,0.2592,0.2583,0.263,0.2709,0.28,0.2902,0.3079,0.3184,0.3367,0.3505,0.3732,0.3827,0.392,0.398,0.412,0.4032,0.4014,0.3782,0.3737,0.4058,0.4025,0.4319,0.4317,0.4315,0.4314,0,0.2409,0.2455,0.2468,0.255,0.2587,0.2617,0.277,0.2838,0.3002,0.3171,0.3231,0.3485,0.3672,0.38,0.399,0.3981,0.4046,0.4016,0.3708,0.3646,0.3952,0.3929,0.4079,0.4072,0.4066,0.406,0.4056,0,0.2352,0.2342,0.2418,0.2436,0.2484,0.256,0.2621,0.279,0.2885,0.3147,0.3227,0.3444,0.3589,0.3726,0.374,0.3849,0.3961,0.3564,0.3584,0.3959,0.393,0.3916,0.3902,0.3408,0.3398,0.3391,0.3384,0,0.2232,0.227,0.2285,0.2333,0.2388,0.2458,0.2576,0.2636,0.2849,0.2983,0.3151,0.326,0.3456,0.3414,0.3418,0.3454,0.3525,0.3412,0.3903,0.3426,0.3322,0.3292,0.3303,0.3316,0.3323,0.3328,0.3332,0.3334,0.214,0.2131,0.2159,0.2215,0.2282,0.2353,0.2383,0.2517,0.2633,0.2769,0.2934,0.299,0.3052,0.302,0.2949,0.2937,0.3259,0.314,0.3168,0.3204,0.2999,0.2879,0.2758,0.2762,0.2765,0.2768,0.277,0,0.1991,0.2018,0.2043,0.2098,0.2138,0.2243,0.2344,0.2353,0.2442,0.2536,0.2611,0.2385,0.2385,0.2521,0.242,0.2399,0.2453,0.2323,0.2392,0.246,0.252,0.2284,0.1854,0.1851,0.1848,0.1846,0,0,0.1905,0.1875,0.1912,0.1939,0.2015,0.2046,0.209,0.2115,0.2171,0.2075,0.2049,0.2167,0.2365,0.2014,0.2014,0.1929,0.2185,0.187,0.2607,0.2754,0.2811,0.2994,0.2703,0,0,0,0,0]},{"header":{"parameterUnit":"m.s-1","parameterCategory":2,"la1":30.2991,"la2":30.254,"lo1":-89.0895,"lo2":-89.0444,"dy":0.0017,"dx":0.0017,"nx":28,"ny":28,"refTime":"2024-07-22T03:00:00:Z","depth":"2","parameterNumber":3,"parameterNumberName":"V-component_of_CURRENTS"},"data":[0,0,0,0,0,0,0,0,0,0,0,0,0,0,0,0,0,0,0,0,0,0,0,0,0,0,0,0,0,0,0,0,0,0,0,0,0,0,0,0,0,0,0,0,0,0,0,0,0,0,0,0,0,0,0,0,0,0,-0.0654,-0.0654,0,-0.0685,-0.0686,-0.0687,-0.0767,-0.0768,-0.0769,-0.077,-0.0951,-0.0954,-0.0958,0,0,0,0,0,0,0,0,0,0,0,0,0,-0.0522,-0.0526,-0.0654,-0.0654,-0.0654,-0.0685,-0.0686,-0.0687,-0.0766,-0.0768,-0.0769,-0.077,-0.0949,-0.0954,-0.0959,0,0,0,0,0,0,0,0,0,0,0,0,0,-0.0576,-0.0527,-0.0654,-0.0692,-0.0695,-0.0685,-0.0686,-0.0688,-0.0766,-0.0768,-0.0769,-0.0771,-0.0948,-0.0953,-0.0959,-0.0963,0,0,-0.0977,-0.0979,0,0,0,0,0,0,0,0,-0.0573,-0.0582,-0.0687,-0.0689,-0.0693,-0.0718,-0.0706,-0.0785,-0.0766,-0.0746,-0.077,-0.0772,-0.0881,-0.0892,-0.0902,-0.0971,-0.0979,-0.0977,-0.0981,-0.0983,-0.0985,0,0,0,0,0,0,0,-0.0569,-0.058,-0.0673,-0.0686,-0.069,-0.0658,-0.067,-0.072,-0.0812,-0.0748,-0.0752,-0.0744,-0.0885,-0.0896,-0.0907,-0.0981,-0.0977,-0.0982,-0.0986,-0.0988,-0.11,-0.11,0,0,0,0,0,0,-0.0558,-0.0577,-0.0672,-0.0674,-0.0628,-0.066,-0.0673,-0.0714,-0.0809,-0.0821,-0.0743,-0.0748,-0.0886,-0.09,-0.0914,-0.0921,-0.0983,-0.0988,-0.0992,-0.1101,-0.11,-0.11,0,0,0,0,0,0,-0.0556,-0.0568,-0.0671,-0.0617,-0.0627,-0.0661,-0.0705,-0.0713,-0.0741,-0.0802,-0.082,-0.0764,-0.0888,-0.0906,-0.0987,-0.0929,-0.0991,-0.0996,-0.1101,-0.1101,-0.11,-0.0936,0,0,0,0,0,0,-0.0553,-0.0569,-0.0585,-0.0618,-0.063,-0.0683,-0.0703,-0.0712,-0.073,-0.0737,-0.0825,-0.0843,-0.089,-0.0979,-0.0993,-0.0938,-0.1001,-0.1102,-0.1101,-0.11,-0.0942,-0.093,-0.092,0,0,0,0,0,-0.0549,-0.0577,-0.0587,-0.0597,-0.0657,-0.0683,-0.0687,-0.0717,-0.0729,-0.0748,-0.0813,-0.0841,-0.0982,-0.0984,-0.1001,-0.0945,-0.1102,-0.1101,-0.11,-0.0947,-0.0932,-0.092,0,0,0,0,0,0,-0.0523,-0.0587,-0.06,-0.0645,-0.0664,-0.0694,-0.0704,-0.0718,-0.0778,-0.0791,-0.0857,-0.0879,-0.0921,-0.0973,-0.0973,-0.0979,-0.1038,-0.104,-0.0915,-0.0902,-0.0891,-0.0885,-0.1006,0,0,0,0,0,-0.0521,-0.0564,-0.0604,-0.0631,-0.065,-0.0675,-0.0683,-0.0702,-0.0752,-0.0779,-0.0817,-0.0872,-0.0923,-0.0949,-0.1005,-0.1019,-0.1047,-0.0992,-0.098,-0.097,-0.098,-0.0974,-0.0962,-0.1096,-0.1096,-0.1096,0,0,-0.0503,-0.0548,-0.0565,-0.0626,-0.0649,-0.0662,-0.0689,-0.0709,-0.0708,-0.079,-0.0803,-0.0845,-0.0927,-0.0939,-0.0958,-0.0977,-0.0941,-0.0969,-0.0959,-0.0975,-0.0972,-0.0958,-0.0946,-0.1096,-0.1096,-0.1096,0,0,-0.049,-0.0549,-0.0576,-0.0607,-0.064,-0.065,-0.0657,-0.068,-0.0693,-0.071,-0.076,-0.0767,-0.0842,-0.0856,-0.0886,-0.085,-0.0891,-0.0867,-0.0789,-0.0781,-0.077,-0.076,-0.074,-0.073,-0.0846,-0.0846,-0.0846,0,-0.0461,-0.0523,-0.0577,-0.0613,-0.0624,-0.0646,-0.0657,-0.0667,-0.0696,-0.0698,-0.0705,-0.073,-0.0789,-0.0784,-0.078,-0.0814,-0.0837,-0.0823,-0.0762,-0.0753,-0.0746,-0.0729,-0.072,-0.0838,-0.0839,-0.084,-0.084,0,-0.0474,-0.0519,-0.054,-0.0593,-0.0604,-0.0626,-0.0641,-0.0628,-0.0618,-0.062,-0.0599,-0.0623,-0.0628,-0.063,-0.071,-0.067,-0.071,-0.0751,-0.0783,-0.0721,-0.0708,-0.0701,-0.0826,-0.0829,-0.0832,-0.0834,0,0,-0.0447,-0.0529,-0.0538,-0.0559,-0.0606,-0.0614,-0.0598,-0.0598,-0.0579,-0.0541,-0.0483,-0.0516,-0.0488,-0.0522,-0.0545,-0.0545,-0.0497,-0.0634,-0.0637,-0.0591,-0.0485,-0.0574,-0.0576,-0.0538,-0.0536,-0.0536,-0.0482,0,-0.0444,-0.0485,-0.0527,-0.0542,-0.0572,-0.0584,-0.0561,-0.0554,-0.054,-0.0484,-0.0446,-0.0432,-0.0457,-0.0437,-0.0419,-0.0517,-0.0481,-0.0509,-0.0576,-0.0577,-0.0644,-0.0572,-0.0518,-0.0474,-0.0476,-0.0475,-0.0474,0,-0.0471,-0.0493,-0.0502,-0.0531,-0.0541,-0.0528,-0.0496,-0.0484,-0.0438,-0.0415,-0.0338,-0.0341,-0.0299,-0.0324,-0.0342,-0.0371,-0.0412,-0.046,-0.0459,-0.0605,-0.0656,-0.0549,-0.0463,-0.0464,-0.0465,-0.0465,-0.0466,0,-0.0447,-0.0493,-0.0487,-0.0506,-0.0517,-0.0496,-0.0482,-0.0458,-0.0426,-0.0368,-0.0311,-0.0265,-0.0218,-0.0248,-0.0384,-0.0354,-0.0448,-0.0395,-0.0478,-0.0483,-0.0485,-0.0495,-0.0376,-0.0376,-0.0377,-0.0377,-0.0377,0,-0.0467,-0.0472,-0.0472,-0.0479,-0.044,-0.0467,-0.0413,-0.0394,-0.0326,-0.0253,-0.0256,-0.017,-0.0216,-0.0282,-0.0358,-0.0443,-0.0408,-0.0457,-0.0477,-0.0427,-0.0432,-0.0483,-0.0496,-0.0375,-0.0375,-0.0376,-0.0376,0,-0.0455,-0.0464,-0.0463,-0.0452,-0.0437,-0.0407,-0.0356,-0.0308,-0.0274,-0.0152,-0.0123,-0.0111,-0.0153,-0.0264,-0.036,-0.0418,-0.0512,-0.056,-0.0514,-0.0529,-0.0515,-0.0521,-0.0498,-0.0501,-0.0503,-0.0505,-0.0507,0,-0.0449,-0.0448,-0.0422,-0.0392,-0.0382,-0.0338,-0.0284,-0.0257,-0.0188,-0.0105,-0.0015,-0.0055,0.0014,-0.0198,-0.0379,-0.0498,-0.0548,-0.0587,-0.0488,-0.0507,-0.0528,-0.053,-0.0532,-0.039,-0.039,-0.0391,-0.0391,0,-0.0426,-0.0411,-0.0393,-0.0329,-0.0277,-0.021,-0.0135,-0.0058,0.0015,0.0121,0.0243,0.0282,0.0119,-0.0002,-0.0311,-0.0403,-0.0558,-0.0593,-0.063,-0.0407,-0.0412,-0.0431,-0.0434,-0.0395,-0.0395,-0.0394,-0.0394,-0.0394,-0.0386,-0.0358,-0.0321,-0.0254,-0.0185,-0.0061,0.004,0.0155,0.0312,0.0525,0.0484,0.0593,0.032,0.0069,-0.0224,-0.0534,-0.0468,-0.0529,-0.0523,-0.0517,-0.0554,-0.0568,-0.0584,-0.0584,-0.0585,-0.0585,-0.0586,0,-0.0332,-0.0299,-0.0242,-0.0141,-0.0028,-0.0012,0.0168,0.0323,0.0569,0.0722,0.0876,0.0715,0.0533,0.0212,-0.0206,-0.047,-0.045,-0.0559,-0.0458,-0.0454,-0.045,-0.048,-0.0492,-0.0492,-0.0492,-0.0492,0,0,-0.0302,-0.023,-0.0196,-0.0004,0.0079,0.0277,0.0407,0.0648,0.0817,0.1018,0.1087,0.1115,0.0685,0.0409,0.0017,-0.0226,-0.0265,-0.0271,-0.0319,-0.015,-0.0141,-0.0413,-0.0454,0,0,0,0,0]}],[{"header":{"parameterUnit":"m.s-1","parameterCategory":2,"la1":30.2991,"la2":30.254,"lo1":-89.0895,"lo2":-89.0444,"dy":0.0017,"dx":0.0017,"nx":28,"ny":28,"refTime":"2024-07-22T03:00:00:Z","depth":"4","parameterNumber":2,"parameterNumberName":"U-component_of_CURRENTS"},"data":[0,0,0,0,0,0,0,0,0,0,0,0,0,0,0,0,0,0,0,0,0,0,0,0,0,0,0,0,0,0,0,0,0,0,0,0,0,0,0,0,0,0,0,0,0,0,0,0,0,0,0,0,0,0,0,0,0,0,0.0968,0.0969,0,0.1012,0.1011,0.1011,0.1052,0.1053,0.1054,0.1055,0.0992,0.0989,0.0986,0,0,0,0,0,0,0,0,0,0,0,0,0,0.0863,0.0865,0.0967,0.0969,0.097,0.1012,0.1011,0.1011,0.1051,0.1053,0.1055,0.1056,0.0993,0.0989,0.0986,0,0,0,0,0,0,0,0,0,0,0,0,0,0.09,0.0865,0.0967,0.1001,0.1005,0.1012,0.1011,0.1011,0.1051,0.1053,0.1055,0.1057,0.0994,0.099,0.0985,0.0921,0,0,0.0972,0.097,0,0,0,0,0,0,0,0,0.0898,0.0903,0.0995,0.0999,0.1004,0.1035,0.0952,0.0979,0.1051,0.1025,0.1055,0.1058,0.1,0.0996,0.0989,0.0918,0.0915,0.0972,0.0969,0.0967,0.0966,0,0,0,0,0,0,0,0.0896,0.0901,0.0976,0.0996,0.1002,0.0996,0.1003,0.0957,0.0993,0.1027,0.1032,0.105,0.1001,0.0994,0.0988,0.0914,0.0972,0.0968,0.0966,0.0964,0.1044,0.1048,0,0,0,0,0,0,0.0908,0.0899,0.0975,0.0979,0.0964,0.0998,0.1005,0.1016,0.0996,0.0998,0.1048,0.1052,0.1,0.0993,0.0986,0.1044,0.0967,0.0963,0.0961,0.1039,0.1045,0.105,0,0,0,0,0,0,0.0905,0.0914,0.0974,0.0947,0.0955,0.0999,0.1011,0.1017,0.104,0.1015,0.1014,0.1071,0.1001,0.0992,0.1015,0.1037,0.0962,0.0958,0.1034,0.1041,0.1047,0.1073,0,0,0,0,0,0,0.0902,0.0912,0.0946,0.0947,0.0958,0.1,0.101,0.1016,0.105,0.1056,0.1032,0.1027,0.1002,0.1022,0.1011,0.103,0.0954,0.1028,0.1037,0.1045,0.1067,0.108,0.1092,0,0,0,0,0,0.0898,0.0926,0.0946,0.0958,0.0995,0.1002,0.1006,0.1037,0.105,0.1062,0.1082,0.103,0.1072,0.1021,0.1007,0.1025,0.1023,0.1034,0.1044,0.1061,0.1078,0.1092,0,0,0,0,0,0,0.0883,0.0934,0.0956,0.0996,0.1013,0.1013,0.1037,0.1048,0.1068,0.1085,0.1056,0.1052,0.1094,0.1073,0.1018,0.1093,0.1051,0.1059,0.1069,0.1084,0.1097,0.1123,0.0951,0,0,0,0,0,0.09,0.0938,0.097,0.0996,0.1014,0.1027,0.1043,0.106,0.1073,0.1085,0.1084,0.1103,0.1119,0.1114,0.1128,0.1127,0.1123,0.1152,0.1165,0.1175,0.12,0.1224,0.1239,0.1085,0.1085,0.1084,0,0,0.0893,0.0932,0.095,0.0998,0.1012,0.1033,0.1039,0.1067,0.1084,0.107,0.1108,0.1138,0.114,0.1175,0.1191,0.1155,0.122,0.1188,0.1195,0.1216,0.1236,0.125,0.1263,0.1092,0.1091,0.1089,0,0,0.0888,0.094,0.0971,0.0995,0.1044,0.1054,0.1069,0.1098,0.1119,0.1155,0.1179,0.1238,0.1235,0.126,0.1262,0.1354,0.1298,0.1369,0.142,0.1443,0.1454,0.1463,0.1465,0.1474,0.1359,0.1359,0.1359,0,0.0894,0.0924,0.0975,0.1008,0.1035,0.1066,0.109,0.1102,0.1141,0.1173,0.1185,0.1285,0.1277,0.1328,0.1387,0.1372,0.138,0.1336,0.1451,0.1461,0.147,0.147,0.148,0.1361,0.1361,0.1361,0.1361,0,0.0889,0.0936,0.0948,0.1008,0.1049,0.1063,0.1108,0.1147,0.1188,0.1221,0.1314,0.1346,0.1415,0.1426,0.1425,0.1507,0.1489,0.1464,0.1387,0.1485,0.1481,0.1491,0.1365,0.1364,0.1363,0.1363,0,0,0.0849,0.0932,0.0942,0.0978,0.1052,0.1076,0.1124,0.118,0.1223,0.1296,0.1353,0.1441,0.1505,0.1524,0.1543,0.1569,0.1632,0.1557,0.1557,0.1518,0.1678,0.1604,0.1606,0.1619,0.1621,0.1623,0.1641,0,0.0829,0.0882,0.0938,0.0989,0.1022,0.1088,0.1137,0.1208,0.1263,0.1327,0.1397,0.148,0.152,0.1576,0.1615,0.164,0.1664,0.1629,0.1629,0.1629,0.1515,0.1618,0.1631,0.1648,0.165,0.1652,0.1653,0,0.0811,0.0854,0.0894,0.1005,0.1029,0.1081,0.1185,0.124,0.1339,0.1383,0.149,0.1547,0.1651,0.1647,0.1745,0.1726,0.173,0.1728,0.1727,0.166,0.1574,0.1542,0.167,0.1669,0.1667,0.1666,0.1665,0,0.0746,0.0837,0.0866,0.0891,0.1006,0.1068,0.1166,0.1284,0.1339,0.1452,0.1519,0.1619,0.1711,0.1738,0.18,0.1776,0.1863,0.1806,0.1736,0.1729,0.1768,0.1757,0.1861,0.1861,0.186,0.186,0.186,0,0.0693,0.0718,0.085,0.0855,0.0926,0.1074,0.1158,0.1252,0.1391,0.1455,0.1589,0.1653,0.1751,0.1815,0.1812,0.183,0.1883,0.1778,0.1745,0.1781,0.1773,0.1772,0.1762,0.1861,0.1861,0.1861,0.1861,0,0.0587,0.0653,0.0687,0.0828,0.0885,0.0957,0.1149,0.1222,0.1394,0.1477,0.1534,0.1713,0.1804,0.1865,0.1902,0.187,0.1855,0.1837,0.1889,0.1853,0.169,0.1682,0.1742,0.174,0.1738,0.1737,0.1735,0,0.0525,0.0534,0.0644,0.0678,0.0741,0.0872,0.0968,0.1174,0.1261,0.1487,0.1529,0.1697,0.1771,0.1795,0.1856,0.1843,0.1826,0.1818,0.1757,0.1725,0.1686,0.1681,0.1675,0.1733,0.1732,0.1732,0.1731,0,0.0399,0.0435,0.0465,0.0549,0.0643,0.072,0.0904,0.0952,0.1182,0.1333,0.1476,0.1557,0.1661,0.1718,0.176,0.1735,0.182,0.1798,0.18,0.1742,0.1714,0.1676,0.1672,0.1725,0.1726,0.1726,0.1727,0,0.0311,0.0294,0.0355,0.0428,0.0516,0.0595,0.0687,0.0853,0.0972,0.126,0.1277,0.1461,0.1606,0.1663,0.1675,0.1684,0.1644,0.159,0.1602,0.161,0.1567,0.1512,0.1458,0,0,0,0,0,0.0242,0.0226,0.0259,0.0332,0.0421,0.0492,0.0658,0.077,0.0977,0.1037,0.1167,0.1245,0.1356,0.1473,0.1449,0.1594,0.1625,0.1563,0.1561,0.169,0.1698,0.1664,0,0,0,0,0,0,0.0182,0.0192,0.0209,0.0249,0.0305,0.0406,0.0506,0.065,0.0719,0.0926,0.0999,0.1166,0.129,0.1331,0.1419,0.1447,0.1423,0.168,0.1678,0.1686,0.1693,0.1699,0.1667,0,0,0,0,0]},{"header":{"parameterUnit":"m.s-1","parameterCategory":2,"la1":30.2991,"la2":30.254,"lo1":-89.0895,"lo2":-89.0444,"dy":0.0017,"dx":0.0017,"nx":28,"ny":28,"refTime":"2024-07-22T03:00:00:Z","depth":"4","parameterNumber":3,"parameterNumberName":"V-component_of_CURRENTS"},"data":[0,0,0,0,0,0,0,0,0,0,0,0,0,0,0,0,0,0,0,0,0,0,0,0,0,0,0,0,0,0,0,0,0,0,0,0,0,0,0,0,0,0,0,0,0,0,0,0,0,0,0,0,0,0,0,0,0,0,0.0042,0.0042,0,0.0035,0.0035,0.0035,0.002,0.002,0.0019,0.0019,0.0056,0.0058,0.0059,0,0,0,0,0,0,0,0,0,0,0,0,0,0.0056,0.0055,0.0042,0.0042,0.0042,0.0035,0.0035,0.0035,0.002,0.002,0.0019,0.0018,0.0056,0.0058,0.0059,0,0,0,0,0,0,0,0,0,0,0,0,0,0.0051,0.0055,0.0042,0.0032,0.0031,0.0035,0.0035,0.0035,0.002,0.002,0.0019,0.0018,0.0055,0.0058,0.006,0.0087,0,0,0.0066,0.0067,0,0,0,0,0,0,0,0,0.0051,0.0051,0.0034,0.0033,0.0031,0.0026,0.0054,0.0054,0.002,0.0026,0.0019,0.0018,0.005,0.0052,0.0055,0.0089,0.0091,0.0067,0.0068,0.0069,0.0069,0,0,0,0,0,0,0,0.0052,0.0051,0.0041,0.0034,0.0032,0.0032,0.0031,0.0054,0.0044,0.0026,0.0024,0.0021,0.005,0.0053,0.0056,0.0091,0.0066,0.0068,0.007,0.0071,0.0077,0.0076,0,0,0,0,0,0,0.0049,0.0051,0.0042,0.0041,0.0038,0.0032,0.0031,0.003,0.0043,0.0043,0.0021,0.002,0.0049,0.0053,0.0057,0.0045,0.0069,0.0071,0.0072,0.0078,0.0077,0.0075,0,0,0,0,0,0,0.0049,0.0048,0.0042,0.0044,0.0043,0.0032,0.0032,0.003,0.0029,0.0039,0.004,0.002,0.0049,0.0054,0.0071,0.0048,0.0072,0.0074,0.0079,0.0078,0.0076,0.0052,0,0,0,0,0,0,0.005,0.0049,0.0048,0.0044,0.0043,0.0042,0.0032,0.0031,0.0027,0.0025,0.0039,0.0042,0.0049,0.0068,0.0074,0.0052,0.0075,0.0081,0.0078,0.0076,0.0054,0.0049,0.0046,0,0,0,0,0,0.005,0.0049,0.0048,0.0046,0.0042,0.0041,0.0041,0.0032,0.0028,0.0028,0.0035,0.0041,0.0057,0.007,0.0077,0.0055,0.0082,0.0079,0.0077,0.0056,0.005,0.0046,0,0,0,0,0,0,0.0049,0.0048,0.0046,0.0043,0.0041,0.0038,0.0034,0.0034,0.004,0.0036,0.0048,0.0052,0.0051,0.006,0.0074,0.0046,0.0062,0.0061,0.0044,0.0039,0.0034,0.0016,0.0077,0,0,0,0,0,0.005,0.0052,0.0049,0.0047,0.0044,0.0041,0.0039,0.0035,0.0039,0.004,0.005,0.005,0.0046,0.005,0.0054,0.0059,0.0038,0.004,0.0035,0.0032,0.0019,-0.0059,-0.0072,0.0067,0.0067,0.0067,0,0,0.0049,0.0047,0.0049,0.0047,0.0043,0.0048,0.0038,0.0033,0.004,0.0046,0.0057,0.0045,0.0045,0.0037,0.0035,0.0043,-0.001,0.0029,0.0026,0.0015,-0.0063,-0.0077,-0.0089,0.0065,0.0065,0.0066,0,0,0.0051,0.0045,0.005,0.005,0.0045,0.0046,0.0046,0.0044,0.0042,0.0054,0.0042,0.0013,0.0038,0.0009,0.0003,-0.0021,-0.0029,-0.0021,-0.0053,-0.0129,-0.0141,-0.0152,-0.0158,-0.017,-0.0024,-0.0024,-0.0024,0,0.0045,0.0064,0.005,0.0054,0.0062,0.0047,0.0061,0.0056,0.0062,0.0063,0.0055,0.0023,0.0016,-0.0019,-0.0045,-0.0032,-0.0053,-0.0029,-0.0135,-0.0147,-0.0158,-0.0162,-0.0175,-0.0026,-0.0026,-0.0026,-0.0025,0,0.0058,0.0074,0.0074,0.0082,0.008,0.0092,0.0082,0.0085,0.0081,0.0072,0.0039,0.0003,-0.0015,-0.0044,-0.0051,-0.0137,-0.0116,-0.013,-0.0122,-0.0174,-0.0173,-0.0186,-0.0028,-0.0027,-0.0027,-0.0027,0,0,0.0047,0.0082,0.0083,0.0115,0.0105,0.0117,0.0112,0.0119,0.0131,0.0082,0.0077,0.0001,-0.0036,-0.0051,-0.0088,-0.0181,-0.0276,-0.0197,-0.0201,-0.0201,-0.04,-0.0347,-0.0355,-0.0317,-0.0321,-0.0323,-0.0354,0,0.007,0.0123,0.0113,0.0159,0.0196,0.0176,0.0186,0.0175,0.0162,0.0152,0.0058,0.0038,-0.003,-0.0049,-0.0158,-0.0239,-0.0318,-0.0263,-0.0352,-0.0354,-0.0301,-0.0372,-0.0334,-0.0363,-0.0366,-0.0368,-0.037,0,0.009,0.0138,0.0201,0.0251,0.0258,0.0275,0.0299,0.0297,0.0254,0.0239,0.0162,0.0103,-0.0023,-0.0081,-0.0276,-0.0237,-0.0326,-0.0408,-0.0411,-0.0369,-0.0327,-0.0312,-0.0393,-0.0391,-0.039,-0.0388,-0.0387,0,0.0144,0.0194,0.0265,0.0281,0.0323,0.0346,0.0356,0.0335,0.0346,0.029,0.0278,0.0134,0.0073,-0.0099,-0.0264,-0.0275,-0.0474,-0.049,-0.0521,-0.0514,-0.0539,-0.0527,-0.0646,-0.0646,-0.0646,-0.0646,-0.0646,0,0.0194,0.0247,0.0312,0.036,0.0439,0.0422,0.0484,0.0467,0.0444,0.044,0.0325,0.0277,0.0048,-0.0085,-0.0244,-0.0408,-0.0447,-0.0543,-0.0543,-0.0539,-0.0528,-0.0545,-0.0532,-0.0647,-0.0647,-0.0647,-0.0646,0,0.0246,0.0286,0.0375,0.0449,0.0477,0.0528,0.0579,0.0605,0.0574,0.0558,0.0534,0.0382,0.0203,0.0006,-0.0245,-0.035,-0.0523,-0.0568,-0.0501,-0.0493,-0.051,-0.0499,-0.0605,-0.0604,-0.0603,-0.0602,-0.0601,0,0.0282,0.0343,0.0451,0.0501,0.0543,0.0627,0.0672,0.0677,0.0688,0.0611,0.0586,0.0433,0.0312,0.0026,-0.0192,-0.0441,-0.0493,-0.0545,-0.0602,-0.0528,-0.0518,-0.0508,-0.0498,-0.06,-0.06,-0.06,-0.0599,0,0.0346,0.0381,0.0451,0.0569,0.0639,0.0722,0.0779,0.0796,0.0763,0.0755,0.0629,0.0465,0.0282,0.0038,-0.0136,-0.0335,-0.05,-0.0536,-0.0541,-0.0596,-0.0524,-0.0512,-0.0503,-0.0596,-0.0597,-0.0597,-0.0597,0,0.0375,0.0425,0.0508,0.0601,0.0689,0.0745,0.0796,0.0795,0.0804,0.071,0.0675,0.0461,0.0347,0.0095,-0.0084,-0.025,-0.0313,-0.0373,-0.0387,-0.0393,-0.0337,-0.0215,-0.021,0,0,0,0,0,0.0394,0.0435,0.0526,0.0615,0.0701,0.0752,0.0815,0.0844,0.0831,0.0753,0.0715,0.054,0.0264,0.014,-0.002,-0.0084,-0.0345,-0.0276,-0.0422,-0.0579,-0.0582,-0.0551,0,0,0,0,0,0,0.0398,0.0476,0.0515,0.0596,0.0655,0.0746,0.0781,0.0784,0.0746,0.0711,0.0568,0.0515,0.0249,0.0353,-0.0022,-0.0072,-0.0182,-0.0396,-0.0399,-0.0576,-0.058,-0.0583,-0.0552,0,0,0,0,0]}]]